[Iaude] MPEC C56: 2024 BV6 [a=1.36,e=0.26,i=20.6,H=21.8]

mpec at cfa.harvard.edu mpec at cfa.harvard.edu
Mon Feb 5 17:47:56 EST 2024


M.P.E.C. 2024-C56                              Issued 2024 February 5, 22:46 UT

     The Minor Planet Electronic Circulars contain information on unusual
         minor planets, routine data on comets and natural satellites,
         and occasional editorial announcements.  They are published
    on behalf of Division F of the International Astronomical Union by the
          Minor Planet Center, Smithsonian Astrophysical Observatory,
                          Cambridge, MA 02138, U.S.A.
			  
             Prepared using the Tamkin Foundation Computer Network

                              MPC at CFA.HARVARD.EDU
            URL https://www.minorplanetcenter.net/    ISSN 1523-6714

                                    2024 BV6                                    


Observations:
     K24B06V* C2024 01 21.41593510 26 36.646+08 41 49.32         21.72wXEC056F51
     K24B06V  C2024 01 21.43914910 26 34.728+08 40 43.16         21.79wXEC056F51
     K24B06V  C2024 01 21.45078110 26 33.762+08 40 09.78         21.54wXEC056F51
     K24B06V  C2024 01 21.58907110 26 22.059+08 33 33.59         21.23GVEC056F51
     K24B06V  C2024 01 21.58971610 26 22.008+08 33 31.68         21.40GVEC056F51
     K24B06V 1C2024 02 05.33587709 55 03.097-06 27 48.42         19.93GVEC056G96
     K24B06V 1C2024 02 05.34104009 55 02.104-06 28 11.28         19.66GVEC056G96
     K24B06V 1C2024 02 05.34620209 55 01.074-06 28 34.36         19.86GVEC056G96
     K24B06V 1C2024 02 05.35137209 55 00.073-06 28 57.65         20.12GVEC056G96
     K24B06V 1C2024 02 05.93460 09 53 12.05 -07 12 30.8          19.9 VXEC056033
     K24B06V 1C2024 02 05.93530 09 53 11.95 -07 12 34.4          20.3 VXEC056033

Observer details:
033 Karl Schwarzschild Observatory, Tautenburg.  Observers S. Melnikov, C.
    Hogner, F. Ludwig, M. Hartmann, B. Stecklum.  Measurer B. Stecklum.
    1.34-m f/3 Schmidt + CCD.
F51 Pan-STARRS 1, Haleakala.  Observers J. Herman, T. Lowe, P. Minguez, A.
    Schultz, I. Smith.  Measurers K. Chambers, T. de Boer, J. Fairlamb, H.
    Gao, M. Huber, C.-C. Lin, E. Magnier, Y. Ramanjooloo, R. Wainscoat, R.
    Weryk.  1.8-m Ritchey-Chretien + CCD.
G96 Mt. Lemmon Survey.  Observers V. F. Carvajal, D. Rankin.  Measurers T.
    Beuden, V. F. Carvajal, D. Fay, J. B. Fazekas, D. C. Fuls, A. R. Gibbs, A.
    D. Grauer, H. Groeller, J. K. Hogan, R. A. Kowalski, S. M. Larson, G. J.
    Leonard, D. Rankin, R. L. Seaman, F. C. Shelly, K. W. Wierzchos.  1.5-m
    reflector + 10K CCD.

Orbital elements:
2024 BV6                                                 Earth MOID = 0.1781 AU
Epoch 2023 Sept. 13.0 TT = JDT 2460200.5                MPC                     
M 214.66266              (2000.0)            P               Q                  
n   0.61911836     Peri.  275.32912     -0.66716332     +0.69280110             
a   1.3633905      Node   308.89113     -0.46395496     -0.67393568             
e   0.2611734      Incl.   20.58916     -0.58278547     -0.25658787             
P   1.59           H   21.82          G   0.15           U   9                  
Residuals in seconds of arc
240121 F51  0.0   0.0     240121 F51  0.1+  0.1+    240205 G96  0.0   0.3-
240121 F51  0.1-  0.0     240205 G96  0.1-  0.1+    240205 033  0.3-  0.3+
240121 F51  0.1-  0.3-    240205 G96  0.2+  0.2+    240205 033  0.3+  0.1-
240121 F51  0.1+  0.2+    240205 G96  0.1-  0.0

Ephemeris:
2024 BV6                 a,e,i = 1.36, 0.26, 21                  q = 1.0073
Date    TT    R. A. (2000) Decl.     Delta      r    Elong.  Phase     V
2024 01 06    10 35 02.0 +18 14 51   0.4937  1.3578   130.7    33.3    22.3
...
2024 01 21    10 27 06.2 +09 01 38   0.3641  1.2989   144.9    25.8    21.4
...
2024 01 29    10 13 58.6 +01 50 22   0.3096  1.2670   152.2    21.2    20.8
...
2024 02 04    09 59 01.5 -04 49 52   0.2778  1.2431   155.1    19.5    20.5
2024 02 05    09 56 04.4 -06 02 38   0.2734  1.2391   155.1    19.6    20.5
2024 02 06    09 52 59.3 -07 16 54   0.2692  1.2352   155.0    19.7    20.4
...
2024 02 12    09 31 44.2 -15 06 19   0.2501  1.2115   150.8    23.4    20.3
...
2024 02 20    08 57 08.9 -25 39 20   0.2404  1.1805   139.0    33.3    20.5
...
2024 03 06    07 45 26.4 -40 41 55   0.2601  1.1256   114.6    53.2    21.1

A. U. Tomatic                (C) Copyright 2024 MPC           M.P.E.C. 2024-C56





More information about the Iaude mailing list